FW3278 Weather Reports


Display with metric or nautical units.
time (UTC)temp
F
wind
direction
speed
MPH
gust
MPH
rain 1hr
in
rain 24hr
in
rain mn
in
humidity
%
barometer
mb
20260902090004 51 0 0.0 0.0 0.00 0.10 0.05 75 1011.0
20260902085403 52 0 0.0 0.0 0.00 0.10 0.05 75 1011.1
20260902084524 52 0 0.0 0.0 0.00 0.10 0.05 74 1011.1
20260902083603 52 0 0.0 0.0 0.00 0.10 0.05 73 1011.2
20260902082703 53 0 0.0 0.0 0.00 0.10 0.05 72 1011.2
20260902081803 54 0 0.0 0.0 0.00 0.10 0.05 72 1011.1
20260902080924 54 0 0.0 2.0 0.00 0.10 0.05 72 1011.1
20260902080004 54 157 0.0 2.0 0.00 0.10 0.05 71 1011.1
20260902075403 55 157 0.0 2.0 0.00 0.10 0.05 70 1011.1
20260902074503 55 157 0.0 4.0 0.00 0.10 0.05 69 1011.1
20260902073624 56 157 0.0 2.0 0.00 0.10 0.05 68 1011.0
20260902072724 56 157 1.0 4.0 0.00 0.10 0.05 67 1011.0
20260902071803 57 157 1.0 6.0 0.00 0.10 0.05 65 1011.0
20260902070903 58 157 2.0 5.0 0.00 0.10 0.05 64 1010.9
20260902070005 58 157 2.0 6.0 0.00 0.10 0.05 64 1010.9
20260902065403 58 157 2.0 6.0 0.00 0.10 0.05 63 1011.0
20260902064524 59 157 2.0 5.0 0.00 0.10 0.05 63 1011.1
20260902063603 59 157 2.0 9.0 0.00 0.10 0.05 63 1011.2
20260902062703 59 157 2.0 9.0 0.00 0.10 0.05 63 1011.3
20260902061803 60 157 2.0 8.0 0.00 0.10 0.05 63 1011.4
20260902060903 60 157 2.0 6.0 0.00 0.10 0.05 63 1011.5
20260902060003 60 157 2.0 6.0 0.00 0.10 0.05 63 1011.6
20260902055403 60 157 3.0 9.0 0.00 0.10 0.05 63 1011.6
20260902054503 60 157 3.0 9.0 0.00 0.10 0.05 62 1011.6
20260902053603 60 157 3.0 11.0 0.00 0.10 0.05 62 1011.7
20260902052703 60 157 4.0 11.0 0.00 0.10 0.05 63 1011.8
20260902051824 60 157 4.0 11.0 0.00 0.10 0.05 62 1011.8
20260902050903 60 157 4.0 10.0 0.00 0.10 0.05 62 1011.9
20260902050006 61 157 4.0 9.0 0.00 0.10 0.05 61 1012.0
20260902045424 61 157 3.0 11.0 0.00 0.10 0.05 61 1011.9
20260902044503 61 157 3.0 6.0 0.00 0.10 0.05 63 1011.9
20260902043603 61 157 4.0 9.0 0.00 0.10 0.05 62 1011.9
20260902042703 61 157 3.0 8.0 0.00 0.10 0.05 63 1011.9
20260902041803 60 157 3.0 6.0 0.00 0.10 0.05 65 1011.8
20260902040903 60 157 3.0 6.0 0.00 0.10 0.05 64 1012.1
20260902040024 60 157 3.0 8.0 0.00 0.10 0.05 63 1012.1
20260902035403 61 157 3.0 9.0 0.00 0.10 0.05 63 1012.1
20260902034503 60 157 3.0 9.0 0.00 0.10 0.05 64 1012.2
20260902033603 60 157 3.0 10.0 0.00 0.10 0.05 62 1012.3
20260902032724 60 157 3.0 10.0 0.00 0.10 0.05 64 1012.5
20260902031803 60 157 3.0 6.0 0.00 0.10 0.05 66 1012.7
20260902030903 59 157 5.0 9.0 0.00 0.10 0.05 66 1012.9
20260902030003 59 157 5.0 10.0 0.00 0.10 0.05 66 1013.0
20260902025403 59 157 4.0 10.0 0.00 0.10 0.05 66 1013.1
20260902024503 60 157 4.0 11.0 0.00 0.10 0.05 66 1013.4
20260902023624 59 157 4.0 12.0 0.00 0.10 0.05 66 1013.6
20260902022703 59 157 5.0 12.0 0.00 0.10 0.05 69 1013.7
20260902021803 58 157 5.0 9.0 0.00 0.10 0.05 70 1013.9
20260902020903 57 157 4.0 12.0 0.00 0.10 0.05 70 1014.0
20260902020003 57 157 4.0 10.0 0.00 0.10 0.05 70 1014.2
20260902015403 56 157 4.0 10.0 0.00 0.10 0.05 71 1014.0
20260902014524 57 157 4.0 11.0 0.00 0.10 0.05 70 1014.2
20260902013624 57 157 3.0 11.0 0.00 0.10 0.05 69 1014.3
20260902012703 57 157 4.0 9.0 0.00 0.10 0.05 69 1014.5
20260902011803 57 157 4.0 11.0 0.00 0.10 0.05 70 1014.6
20260902010903 56 157 5.0 12.0 0.00 0.10 0.05 71 1014.5
20260902010003 56 157 5.0 12.0 0.00 0.10 0.05 71 1014.7
20260902005403 56 157 4.0 12.0 0.00 0.10 0.05 72 1014.7
20260902004503 56 157 4.0 9.0 0.00 0.10 0.05 71 1014.9
20260902003603 56 157 5.0 13.0 0.00 0.10 0.05 69 1015.1
20260902002703 56 157 4.0 15.0 0.00 0.10 0.05 70 1014.9
20260902001824 56 157 4.0 10.0 0.00 0.10 0.05 72 1014.9
20260902000903 55 157 3.0 12.0 0.00 0.10 0.05 74 1015.2
20260902000003 54 157 4.0 11.0 0.00 0.10 0.05 76 1015.2
20260901235424 54 157 4.0 11.0 0.00 0.10 0.05 76 1015.1
20260901234503 54 157 5.0 12.0 0.00 0.10 0.05 76 1015.2
20260901233603 54 157 4.0 10.0 0.00 0.10 0.05 77 1015.2
20260901232703 54 157 3.0 10.0 0.00 0.10 0.05 77 1015.3
20260901231803 53 157 3.0 9.0 0.00 0.10 0.05 79 1015.3
20260901230903 53 157 3.0 9.0 0.00 0.10 0.05 79 1015.3
20260901230003 53 157 3.0 10.0 0.00 0.10 0.05 80 1015.3
20260901225403 53 157 3.0 9.0 0.00 0.10 0.05 81 1015.3
20260901224503 53 157 3.0 9.0 0.00 0.10 0.05 81 1015.3
20260901223624 53 157 4.0 13.0 0.00 0.10 0.05 81 1015.2
20260901222703 53 157 3.0 12.0 0.00 0.10 0.05 82 1015.1
20260901221803 53 157 3.0 10.0 0.00 0.10 0.05 83 1015.1
20260901220903 53 157 2.0 9.0 0.00 0.10 0.05 84 1015.0
20260901220003 53 157 2.0 5.0 0.00 0.10 0.05 86 1014.8
20260901215403 52 157 2.0 9.0 0.00 0.10 0.05 86 1014.8
20260901214503 52 157 2.0 9.0 0.00 0.10 0.05 87 1014.7
20260901213603 52 157 1.0 5.0 0.00 0.10 0.05 87 1014.6
20260901212703 52 157 2.0 4.0 0.00 0.10 0.05 87 1014.6
20260901211803 52 157 2.0 8.0 0.00 0.10 0.05 87 1014.6
20260901210903 52 157 1.0 8.0 0.00 0.10 0.05 87 1014.5
20260901210003 52 157 1.0 6.0 0.00 0.10 0.05 87 1014.4
20260901205424 52 157 1.0 6.0 0.00 0.10 0.05 87 1014.3
20260901204503 52 261 1.0 5.0 0.00 0.11 0.05 88 1014.2
20260901203603 52 257 3.0 8.0 0.00 0.11 0.05 88 1014.0
20260901202703 52 252 2.0 11.0 0.00 0.11 0.05 89 1013.9
20260901201803 53 263 1.0 8.0 0.00 0.11 0.05 89 1013.8
20260901200903 53 285 2.0 5.0 0.00 0.11 0.05 89 1013.6
20260901200003 53 271 2.0 9.0 0.00 0.11 0.05 89 1013.5
20260901195403 53 250 2.0 9.0 0.00 0.11 0.05 89 1013.5
20260901194503 54 224 1.0 6.0 0.00 0.11 0.05 89 1013.3
20260901193602 54 205 1.0 6.0 0.00 0.11 0.05 89 1013.3
20260901192703 54 258 2.0 6.0 0.00 0.11 0.05 89 1013.3
20260901191803 54 263 2.0 9.0 0.00 0.11 0.05 88 1013.3
20260901190903 55 242 2.0 9.0 0.00 0.11 0.05 87 1013.1
20260901190003 55 258 2.0 7.0 0.00 0.11 0.05 86 1013.1
20260901185424 56 255 2.0 9.0 0.00 0.11 0.05 86 1012.9
20260901184503 57 196 1.0 10.0 0.00 0.11 0.05 85 1012.8
20260901183603 58 157 1.0 4.0 0.00 0.11 0.05 84 1012.6
20260901182703 58 157 2.0 9.0 0.00 0.11 0.05 83 1012.4
20260901181803 58 157 2.0 8.0 0.00 0.11 0.05 81 1012.2
20260901180924 58 157 2.0 8.0 0.00 0.11 0.05 81 1012.1
20260901180024 58 157 2.0 5.0 0.00 0.11 0.05 81 1012.0
20260901175403 58 157 2.0 8.0 0.00 0.11 0.05 81 1012.1
20260901174503 58 157 2.0 9.0 0.00 0.11 0.05 81 1012.0
20260901173603 58 157 2.0 8.0 0.00 0.11 0.05 81 1011.9
20260901172703 58 157 2.0 6.0 0.00 0.11 0.05 81 1011.8
20260901171803 58 158 2.0 6.0 0.00 0.11 0.05 81 1011.8
20260901170903 58 157 3.0 9.0 0.00 0.11 0.05 81 1011.8
20260901170003 58 157 4.0 10.0 0.00 0.11 0.05 80 1011.9
20260901165403 58 157 4.0 10.0 0.00 0.11 0.05 81 1011.9
20260901164524 58 157 4.0 12.0 0.00 0.11 0.05 81 1011.9
20260901163603 58 157 5.0 12.0 0.00 0.11 0.05 81 1012.1
20260901162703 58 157 5.0 13.0 0.00 0.11 0.05 81 1012.1
20260901161803 58 157 4.0 14.0 0.00 0.11 0.05 82 1012.2
20260901160903 57 157 4.0 12.0 0.00 0.11 0.05 83 1012.1
20260901160002 57 157 4.0 12.0 0.00 0.11 0.05 84 1012.2
20260901155403 57 157 4.0 12.0 0.00 0.11 0.05 84 1012.2
20260901154503 56 157 3.0 13.0 0.00 0.11 0.05 86 1012.4
20260901153602 56 157 3.0 8.0 0.02 0.11 0.05 87 1012.4
20260901152703 56 157 3.0 8.0 0.03 0.11 0.05 87 1012.3
20260901151803 56 157 3.0 8.0 0.04 0.11 0.05 87 1012.3
20260901150903 56 157 3.0 9.0 0.04 0.11 0.05 87 1012.2
20260901150003 56 157 3.0 11.0 0.05 0.11 0.05 87 1012.2
20260901145403 57 157 3.0 11.0 0.05 0.11 0.05 86 1012.3
20260901144523 57 157 3.0 10.0 0.05 0.11 0.05 85 1012.4
20260901143602 57 157 3.0 9.0 0.03 0.09 0.03 84 1012.5
20260901142702 58 157 4.0 8.0 0.02 0.08 0.02 82 1012.5
20260901141802 59 157 6.0 15.0 0.01 0.07 0.01 80 1012.3
20260901140902 59 157 6.0 17.0 0.02 0.07 0.01 77 1012.4
20260901140025 60 157 7.0 13.0 0.01 0.06 0.00 75 1012.4
20260901135402 60 157 7.0 16.0 0.01 0.06 0.06 74 1012.3
20260901134502 61 157 7.0 18.0 0.01 0.06 0.06 71 1012.2
20260901133623 60 157 5.0 15.0 0.01 0.06 0.06 73 1012.2
20260901132703 60 157 7.0 25.0 0.01 0.06 0.06 74 1012.2
20260901131802 60 157 8.0 19.0 0.03 0.06 0.06 74 1012.3
20260901130902 60 157 7.0 18.0 0.02 0.05 0.05 74 1012.6
20260901130002 59 157 7.0 15.0 0.02 0.05 0.05 76 1012.5
20260901125402 59 157 8.0 20.0 0.02 0.05 0.05 76 1012.6
20260901124502 59 157 7.0 16.0 0.02 0.05 0.05 77 1012.5
20260901123602 60 157 9.0 20.0 0.02 0.05 0.05 76 1012.5
20260901122702 61 157 10.0 27.0 0.02 0.05 0.05 72 1012.6
20260901121823 63 157 9.0 27.0 0.00 0.03 0.03 65 1012.7
20260901120902 63 157 9.0 25.0 0.00 0.03 0.03 65 1012.3
20260901120003 62 157 9.0 25.0 0.00 0.03 0.03 65 1012.4
20260901115402 62 157 9.0 26.0 0.00 0.03 0.03 67 1012.4
20260901114503 62 157 9.0 17.0 0.01 0.03 0.03 67 1012.4
20260901113602 61 157 9.0 17.0 0.02 0.03 0.03 68 1012.5
20260901112702 61 157 8.0 16.0 0.02 0.03 0.03 71 1012.2
20260901111823 61 157 9.0 16.0 0.02 0.03 0.03 71 1012.1
20260901110902 61 157 10.0 19.0 0.02 0.03 0.03 71 1012.1
20260901110002 61 157 9.0 19.0 0.02 0.03 0.03 70 1012.2
20260901105403 61 157 8.0 21.0 0.02 0.03 0.03 69 1012.3
20260901104502 62 157 9.0 20.0 0.01 0.02 0.02 69 1012.4
20260901103602 63 157 10.0 21.0 0.00 0.01 0.01 66 1012.5
20260901102702 64 157 9.0 19.0 0.00 0.01 0.01 62 1012.3
20260901101802 64 157 9.0 16.0 0.00 0.01 0.01 58 1012.2
20260901095404 64 157 9.0 25.0 0.00 0.01 0.01 58 1012.0
20260901094503 64 157 10.0 27.0 0.00 0.01 0.01 59 1012.1
20260901093625 64 157 9.0 17.0 0.00 0.01 0.01 57 1012.1
20260901092704 65 157 9.0 19.0 0.00 0.01 0.01 56 1012.1
20260901091825 65 157 8.0 16.0 0.00 0.01 0.01 56 1012.3
20260901090903 65 157 9.0 19.0 0.00 0.01 0.01 55 1012.3